owner,sensor,date,latitude,longitude,vertical_datum,sea_water_practical_salinity,qcFlag 
NERRS,ioos:station:NOAA.NERRS:gndbhwq:1,2013-12-01T00:45:00Z,30.4178,-88.4054,1.45,22.7,1111122 
NERRS,ioos:station:NOAA.NERRS:gndbhwq:1,2013-12-01T04:45:00Z,30.4178,-88.4054,1.28,22.5,1111122 
NERRS,ioos:station:NOAA.NERRS:gndbhwq:1,2013-12-01T11:45:00Z,30.4178,-88.4054,0.83,22.0,1111122 
NERRS,ioos:station:NOAA.NERRS:gndbhwq:1,2013-12-01T15:45:00Z,30.4178,-88.4054,1.06,22.7,1111122 
NERRS,ioos:station:NOAA.NERRS:gndbhwq:1,2013-12-01T19:45:00Z,30.4178,-88.4054,1.31,21.0,1111122 
NERRS,ioos:station:NOAA.NERRS:gndbhwq:1,2013-12-01T20:45:00Z,30.4178,-88.4054,1.33,20.8,1111122 
NERRS,ioos:station:NOAA.NERRS:gndbhwq:1,2013-12-02T01:45:00Z,30.4178,-88.4054,1.56,23.3,1111122 
NERRS,ioos:station:NOAA.NERRS:gndbhwq:1,2013-12-02T07:45:00Z,30.4178,-88.4054,1.11,22.7,1111122 
NERRS,ioos:station:NOAA.NERRS:gndbhwq:1,2013-12-02T16:45:00Z,30.4178,-88.4054,0.96,23.4,1111122 
NERRS,ioos:station:NOAA.NERRS:gndbhwq:1,2013-12-03T04:45:00Z,30.4178,-88.4054,1.6,22.3,1111122 
NERRS,ioos:station:NOAA.NERRS:gndbhwq:1,2013-12-03T06:45:00Z,30.4178,-88.4054,1.45,22.8,1111122 
NERRS,ioos:station:NOAA.NERRS:gndbhwq:1,2013-12-03T07:45:00Z,30.4178,-88.4054,1.34,22.4,1111122 
NERRS,ioos:station:NOAA.NERRS:gndbhwq:1,2013-12-03T10:45:00Z,30.4178,-88.4054,1.02,22.4,1111122 
NERRS,ioos:station:NOAA.NERRS:gndbhwq:1,2013-12-03T11:45:00Z,30.4178,-88.4054,0.94,21.8,1111122 
NERRS,ioos:station:NOAA.NERRS:gndbhwq:1,2013-12-03T15:45:00Z,30.4178,-88.4054,1.0,20.7,1111122 
NERRS,ioos:station:NOAA.NERRS:gndbhwq:1,2013-12-03T16:45:00Z,30.4178,-88.4054,1.03,20.9,1111122 
NERRS,ioos:station:NOAA.NERRS:gndbhwq:1,2013-12-03T19:45:00Z,30.4178,-88.4054,1.18,23.2,1111122 
NERRS,ioos:station:NOAA.NERRS:gndbhwq:1,2013-12-03T23:45:00Z,30.4178,-88.4054,1.41,24.4,1111122 
NERRS,ioos:station:NOAA.NERRS:gndbhwq:1,2013-12-04T07:45:00Z,30.4178,-88.4054,1.45,24.4,1111122 
NERRS,ioos:station:NOAA.NERRS:gndbhwq:1,2013-12-04T09:45:00Z,30.4178,-88.4054,1.22,24.2,1111122 
NERRS,ioos:station:NOAA.NERRS:gndbhwq:1,2013-12-04T14:45:00Z,30.4178,-88.4054,0.96,24.0,1111122 
NERRS,ioos:station:NOAA.NERRS:gndbhwq:1,2013-12-04T15:45:00Z,30.4178,-88.4054,1.01,24.1,1111122 
NERRS,ioos:station:NOAA.NERRS:gndbhwq:1,2013-12-04T16:45:00Z,30.4178,-88.4054,1.04,24.2,1111122 
NERRS,ioos:station:NOAA.NERRS:gndbhwq:1,2013-12-04T17:45:00Z,30.4178,-88.4054,1.09,24.0,1111122 
NERRS,ioos:station:NOAA.NERRS:gndbhwq:1,2013-12-04T18:30:00Z,30.4178,-88.4054,1.1,23.9,1111122 
NERRS,ioos:station:NOAA.NERRS:gndbhwq:1,2013-12-04T19:45:00Z,30.4178,-88.4054,1.18,23.8,1111122 
NERRS,ioos:station:NOAA.NERRS:gndbhwq:1,2013-12-04T20:45:00Z,30.4178,-88.4054,1.22,23.9,1111122 
NERRS,ioos:station:NOAA.NERRS:gndbhwq:1,2013-12-04T21:45:00Z,30.4178,-88.4054,1.28,23.8,1111122 
NERRS,ioos:station:NOAA.NERRS:gndbhwq:1,2013-12-04T22:45:00Z,30.4178,-88.4054,1.35,24.3,1111122 
NERRS,ioos:station:NOAA.NERRS:gndbhwq:1,2013-12-04T23:45:00Z,30.4178,-88.4054,1.42,24.8,1111122 
NERRS,ioos:station:NOAA.NERRS:gndbhwq:1,2013-12-05T00:45:00Z,30.4178,-88.4054,1.5,24.9,1111122 
NERRS,ioos:station:NOAA.NERRS:gndbhwq:1,2013-12-05T01:45:00Z,30.4178,-88.4054,1.58,24.9,1111122 
NERRS,ioos:station:NOAA.NERRS:gndbhwq:1,2013-12-05T02:45:00Z,30.4178,-88.4054,1.65,25.5,1111122 
NERRS,ioos:station:NOAA.NERRS:gndbhwq:1,2013-12-05T03:45:00Z,30.4178,-88.4054,1.71,25.4,1111122 
NERRS,ioos:station:NOAA.NERRS:gndbhwq:1,2013-12-05T04:45:00Z,30.4178,-88.4054,1.74,25.5,1111122 
NERRS,ioos:station:NOAA.NERRS:gndbhwq:1,2013-12-05T06:45:00Z,30.4178,-88.4054,1.62,24.6,1111122 
NERRS,ioos:station:NOAA.NERRS:gndbhwq:1,2013-12-05T07:45:00Z,30.4178,-88.4054,1.54,24.4,1111122 
NERRS,ioos:station:NOAA.NERRS:gndbhwq:1,2013-12-05T08:45:00Z,30.4178,-88.4054,1.47,24.9,1111122 
NERRS,ioos:station:NOAA.NERRS:gndbhwq:1,2013-12-05T09:45:00Z,30.4178,-88.4054,1.39,24.7,1111122 
NERRS,ioos:station:NOAA.NERRS:gndbhwq:1,2013-12-05T10:45:00Z,30.4178,-88.4054,1.26,24.4,1111122 
NERRS,ioos:station:NOAA.NERRS:gndbhwq:1,2013-12-05T11:45:00Z,30.4178,-88.4054,1.15,24.6,1111122 
NERRS,ioos:station:NOAA.NERRS:gndbhwq:1,2013-12-05T12:45:00Z,30.4178,-88.4054,1.08,24.4,1111122 
NERRS,ioos:station:NOAA.NERRS:gndbhwq:1,2013-12-05T13:45:00Z,30.4178,-88.4054,1.02,24.4,1111122 
NERRS,ioos:station:NOAA.NERRS:gndbhwq:1,2013-12-05T14:45:00Z,30.4178,-88.4054,1.0,24.0,1111122 
NERRS,ioos:station:NOAA.NERRS:gndbhwq:1,2013-12-05T15:45:00Z,30.4178,-88.4054,1.02,24.1,1111122 
NERRS,ioos:station:NOAA.NERRS:gndbhwq:1,2013-12-05T16:30:00Z,30.4178,-88.4054,1.05,22.6,1111122 
NERRS,ioos:station:NOAA.NERRS:gndbhwq:1,2013-12-05T17:45:00Z,30.4178,-88.4054,1.07,23.7,1111122 
NERRS,ioos:station:NOAA.NERRS:gndbhwq:1,2013-12-05T18:45:00Z,30.4178,-88.4054,1.13,23.4,1111122 
NERRS,ioos:station:NOAA.NERRS:gndbhwq:1,2013-12-05T19:45:00Z,30.4178,-88.4054,1.14,21.3,1111122 
NERRS,ioos:station:NOAA.NERRS:gndbhwq:1,2013-12-05T20:45:00Z,30.4178,-88.4054,1.2,23.1,1111122 
NERRS,ioos:station:NOAA.NERRS:gndbhwq:1,2013-12-05T21:45:00Z,30.4178,-88.4054,1.29,22.8,1111122 
NERRS,ioos:station:NOAA.NERRS:gndbhwq:1,2013-12-05T22:45:00Z,30.4178,-88.4054,1.33,21.8,1111122 
NERRS,ioos:station:NOAA.NERRS:gndbhwq:1,2013-12-05T23:45:00Z,30.4178,-88.4054,1.37,22.5,1111122 
NERRS,ioos:station:NOAA.NERRS:gndbhwq:1,2013-12-06T00:45:00Z,30.4178,-88.4054,1.44,21.6,1111122 
NERRS,ioos:station:NOAA.NERRS:gndbhwq:1,2013-12-06T01:45:00Z,30.4178,-88.4054,1.5,22.3,1111122 
NERRS,ioos:station:NOAA.NERRS:gndbhwq:1,2013-12-06T02:45:00Z,30.4178,-88.4054,1.58,22.6,1111122 
NERRS,ioos:station:NOAA.NERRS:gndbhwq:1,2013-12-06T03:45:00Z,30.4178,-88.4054,1.67,23.4,1111122 
NERRS,ioos:station:NOAA.NERRS:gndbhwq:1,2013-12-06T04:45:00Z,30.4178,-88.4054,1.72,22.4,1111122 
NERRS,ioos:station:NOAA.NERRS:gndbhwq:1,2013-12-06T05:45:00Z,30.4178,-88.4054,1.72,23.6,1111122 
NERRS,ioos:station:NOAA.NERRS:gndbhwq:1,2013-12-06T06:45:00Z,30.4178,-88.4054,1.66,23.0,1111122 
NERRS,ioos:station:NOAA.NERRS:gndbhwq:1,2013-12-06T07:45:00Z,30.4178,-88.4054,1.59,22.3,1111122 
NERRS,ioos:station:NOAA.NERRS:gndbhwq:1,2013-12-06T08:45:00Z,30.4178,-88.4054,1.55,22.2,1111122 
NERRS,ioos:station:NOAA.NERRS:gndbhwq:1,2013-12-06T09:45:00Z,30.4178,-88.4054,1.51,23.5,1111122 
NERRS,ioos:station:NOAA.NERRS:gndbhwq:1,2013-12-06T10:45:00Z,30.4178,-88.4054,1.46,23.2,1111122 
NERRS,ioos:station:NOAA.NERRS:gndbhwq:1,2013-12-06T11:45:00Z,30.4178,-88.4054,1.35,23.3,1111122 
NERRS,ioos:station:NOAA.NERRS:gndbhwq:1,2013-12-06T12:45:00Z,30.4178,-88.4054,1.23,23.9,1111122 
NERRS,ioos:station:NOAA.NERRS:gndbhwq:1,2013-12-06T13:45:00Z,30.4178,-88.4054,1.16,23.8,1111122 
NERRS,ioos:station:NOAA.NERRS:gndbhwq:1,2013-12-06T14:45:00Z,30.4178,-88.4054,1.12,23.7,1111122 
NERRS,ioos:station:NOAA.NERRS:gndbhwq:1,2013-12-06T15:45:00Z,30.4178,-88.4054,1.11,23.6,1111122 
NERRS,ioos:station:NOAA.NERRS:gndbhwq:1,2013-12-06T16:45:00Z,30.4178,-88.4054,1.14,21.5,1111122 
NERRS,ioos:station:NOAA.NERRS:gndbhwq:1,2013-12-06T17:45:00Z,30.4178,-88.4054,1.14,23.3,1111122 
NERRS,ioos:station:NOAA.NERRS:gndbhwq:1,2013-12-06T18:45:00Z,30.4178,-88.4054,1.14,23.2,1111122 
NERRS,ioos:station:NOAA.NERRS:gndbhwq:1,2013-12-06T19:45:00Z,30.4178,-88.4054,1.22,22.2,1111122 
NERRS,ioos:station:NOAA.NERRS:gndbhwq:1,2013-12-06T20:45:00Z,30.4178,-88.4054,1.25,22.2,1111122 
NERRS,ioos:station:NOAA.NERRS:gndbhwq:1,2013-12-06T21:45:00Z,30.4178,-88.4054,1.31,20.0,1111122 
NERRS,ioos:station:NOAA.NERRS:gndbhwq:1,2013-12-06T22:45:00Z,30.4178,-88.4054,1.34,21.5,1111122 
NERRS,ioos:station:NOAA.NERRS:gndbhwq:1,2013-12-06T23:45:00Z,30.4178,-88.4054,1.36,23.0,1111122 
NERRS,ioos:station:NOAA.NERRS:gndbhwq:1,2013-12-07T00:45:00Z,30.4178,-88.4054,1.4,23.3,1111122 
NERRS,ioos:station:NOAA.NERRS:gndbhwq:1,2013-12-07T01:45:00Z,30.4178,-88.4054,1.43,21.9,1111122 
NERRS,ioos:station:NOAA.NERRS:gndbhwq:1,2013-12-07T02:45:00Z,30.4178,-88.4054,1.46,22.0,1111122 
NERRS,ioos:station:NOAA.NERRS:gndbhwq:1,2013-12-07T03:45:00Z,30.4178,-88.4054,1.49,22.2,1111122 
NERRS,ioos:station:NOAA.NERRS:gndbhwq:1,2013-12-07T04:45:00Z,30.4178,-88.4054,1.51,22.1,1111122 
NERRS,ioos:station:NOAA.NERRS:gndbhwq:1,2013-12-07T05:45:00Z,30.4178,-88.4054,1.46,21.8,1111122 
NERRS,ioos:station:NOAA.NERRS:gndbhwq:1,2013-12-07T06:45:00Z,30.4178,-88.4054,1.34,21.5,1111122 
NERRS,ioos:station:NOAA.NERRS:gndbhwq:1,2013-12-07T07:45:00Z,30.4178,-88.4054,1.34,21.1,1111122 
NERRS,ioos:station:NOAA.NERRS:gndbhwq:1,2013-12-07T08:45:00Z,30.4178,-88.4054,1.34,21.9,1111122 
NERRS,ioos:station:NOAA.NERRS:gndbhwq:1,2013-12-07T09:45:00Z,30.4178,-88.4054,1.25,22.2,1111122 
NERRS,ioos:station:NOAA.NERRS:gndbhwq:1,2013-12-07T10:45:00Z,30.4178,-88.4054,1.23,22.4,1111122 
NERRS,ioos:station:NOAA.NERRS:gndbhwq:1,2013-12-07T11:45:00Z,30.4178,-88.4054,1.09,21.8,1111122 
NERRS,ioos:station:NOAA.NERRS:gndbhwq:1,2013-12-07T12:45:00Z,30.4178,-88.4054,1.03,23.0,1111122 
NERRS,ioos:station:NOAA.NERRS:gndbhwq:1,2013-12-07T13:45:00Z,30.4178,-88.4054,0.97,22.9,1111122 
NERRS,ioos:station:NOAA.NERRS:gndbhwq:1,2013-12-07T14:45:00Z,30.4178,-88.4054,0.92,23.1,1111122 
NERRS,ioos:station:NOAA.NERRS:gndbhwq:1,2013-12-07T15:45:00Z,30.4178,-88.4054,0.87,22.7,1111122 
NERRS,ioos:station:NOAA.NERRS:gndbhwq:1,2013-12-07T16:45:00Z,30.4178,-88.4054,0.94,23.1,1111122 
NERRS,ioos:station:NOAA.NERRS:gndbhwq:1,2013-12-07T17:45:00Z,30.4178,-88.4054,1.04,23.4,1111122 
NERRS,ioos:station:NOAA.NERRS:gndbhwq:1,2013-12-07T18:45:00Z,30.4178,-88.4054,0.94,23.1,1111122 
NERRS,ioos:station:NOAA.NERRS:gndbhwq:1,2013-12-07T19:45:00Z,30.4178,-88.4054,1.0,23.4,1111122 
NERRS,ioos:station:NOAA.NERRS:gndbhwq:1,2013-12-07T20:45:00Z,30.4178,-88.4054,1.03,23.2,1111122 
NERRS,ioos:station:NOAA.NERRS:gndbhwq:1,2013-12-07T21:45:00Z,30.4178,-88.4054,1.08,23.0,1111122 
NERRS,ioos:station:NOAA.NERRS:gndbhwq:1,2013-12-07T22:45:00Z,30.4178,-88.4054,1.18,23.0,1111122 
NERRS,ioos:station:NOAA.NERRS:gndbhwq:1,2013-12-07T23:45:00Z,30.4178,-88.4054,1.18,22.9,1111122 
NERRS,ioos:station:NOAA.NERRS:gndbhwq:1,2013-12-08T00:45:00Z,30.4178,-88.4054,1.23,22.9,1111122 
NERRS,ioos:station:NOAA.NERRS:gndbhwq:1,2013-12-08T01:45:00Z,30.4178,-88.4054,1.26,22.8,1111122 
NERRS,ioos:station:NOAA.NERRS:gndbhwq:1,2013-12-08T02:45:00Z,30.4178,-88.4054,1.3,22.7,1111122 
NERRS,ioos:station:NOAA.NERRS:gndbhwq:1,2013-12-08T03:45:00Z,30.4178,-88.4054,1.39,22.7,1111122 
NERRS,ioos:station:NOAA.NERRS:gndbhwq:1,2013-12-08T04:45:00Z,30.4178,-88.4054,1.42,22.6,1111122 
NERRS,ioos:station:NOAA.NERRS:gndbhwq:1,2013-12-08T05:45:00Z,30.4178,-88.4054,1.48,22.5,1111122 
NERRS,ioos:station:NOAA.NERRS:gndbhwq:1,2013-12-08T06:45:00Z,30.4178,-88.4054,1.48,22.5,1111122 
NERRS,ioos:station:NOAA.NERRS:gndbhwq:1,2013-12-08T07:45:00Z,30.4178,-88.4054,1.46,22.4,1111122 
NERRS,ioos:station:NOAA.NERRS:gndbhwq:1,2013-12-08T08:45:00Z,30.4178,-88.4054,1.37,22.3,1111122 
NERRS,ioos:station:NOAA.NERRS:gndbhwq:1,2013-12-08T09:45:00Z,30.4178,-88.4054,1.41,22.4,1111122 
NERRS,ioos:station:NOAA.NERRS:gndbhwq:1,2013-12-08T10:45:00Z,30.4178,-88.4054,1.36,22.4,1111122 
NERRS,ioos:station:NOAA.NERRS:gndbhwq:1,2013-12-08T11:45:00Z,30.4178,-88.4054,1.34,22.5,1111122 
NERRS,ioos:station:NOAA.NERRS:gndbhwq:1,2013-12-08T12:45:00Z,30.4178,-88.4054,1.29,23.0,1111122 
NERRS,ioos:station:NOAA.NERRS:gndbhwq:1,2013-12-08T13:45:00Z,30.4178,-88.4054,1.21,22.8,1111122 
NERRS,ioos:station:NOAA.NERRS:gndbhwq:1,2013-12-08T14:45:00Z,30.4178,-88.4054,1.22,23.3,1111122 
NERRS,ioos:station:NOAA.NERRS:gndbhwq:1,2013-12-08T15:45:00Z,30.4178,-88.4054,1.17,23.3,1111122 
NERRS,ioos:station:NOAA.NERRS:gndbhwq:1,2013-12-08T16:45:00Z,30.4178,-88.4054,1.27,23.5,1111122 
NERRS,ioos:station:NOAA.NERRS:gndbhwq:1,2013-12-08T18:45:00Z,30.4178,-88.4054,1.27,24.0,1111122 
NERRS,ioos:station:NOAA.NERRS:gndbhwq:1,2013-12-08T19:45:00Z,30.4178,-88.4054,1.22,24.1,1111122 
NERRS,ioos:station:NOAA.NERRS:gndbhwq:1,2013-12-08T20:45:00Z,30.4178,-88.4054,1.22,24.1,1111122 
NERRS,ioos:station:NOAA.NERRS:gndbhwq:1,2013-12-08T22:45:00Z,30.4178,-88.4054,1.34,24.3,1111122 
NERRS,ioos:station:NOAA.NERRS:gndbhwq:1,2013-12-08T23:45:00Z,30.4178,-88.4054,1.38,24.4,1111122 
NERRS,ioos:station:NOAA.NERRS:gndbhwq:1,2013-12-09T00:45:00Z,30.4178,-88.4054,1.4,24.3,1111122 
NERRS,ioos:station:NOAA.NERRS:gndbhwq:1,2013-12-09T01:45:00Z,30.4178,-88.4054,1.31,24.3,1111122 
NERRS,ioos:station:NOAA.NERRS:gndbhwq:1,2013-12-09T03:45:00Z,30.4178,-88.4054,1.37,24.5,1111122 
NERRS,ioos:station:NOAA.NERRS:gndbhwq:1,2013-12-09T04:45:00Z,30.4178,-88.4054,1.44,24.5,1111122 
NERRS,ioos:station:NOAA.NERRS:gndbhwq:1,2013-12-09T05:45:00Z,30.4178,-88.4054,1.41,24.6,1111122 
NERRS,ioos:station:NOAA.NERRS:gndbhwq:1,2013-12-09T06:45:00Z,30.4178,-88.4054,1.39,24.7,1111122 
NERRS,ioos:station:NOAA.NERRS:gndbhwq:1,2013-12-09T07:45:00Z,30.4178,-88.4054,1.31,24.7,1111122 
NERRS,ioos:station:NOAA.NERRS:gndbhwq:1,2013-12-09T08:45:00Z,30.4178,-88.4054,1.31,24.8,1111122 
NERRS,ioos:station:NOAA.NERRS:gndbhwq:1,2013-12-09T09:45:00Z,30.4178,-88.4054,1.28,24.8,1111122 
NERRS,ioos:station:NOAA.NERRS:gndbhwq:1,2013-12-09T10:45:00Z,30.4178,-88.4054,1.26,24.8,1111122 
NERRS,ioos:station:NOAA.NERRS:gndbhwq:1,2013-12-09T11:45:00Z,30.4178,-88.4054,1.22,24.3,1111122 
NERRS,ioos:station:NOAA.NERRS:gndbhwq:1,2013-12-09T12:45:00Z,30.4178,-88.4054,1.25,24.8,1111122 
NERRS,ioos:station:NOAA.NERRS:gndbhwq:1,2013-12-09T13:45:00Z,30.4178,-88.4054,1.13,24.6,1111122 
NERRS,ioos:station:NOAA.NERRS:gndbhwq:1,2013-12-09T14:45:00Z,30.4178,-88.4054,1.16,24.8,1111122 
NERRS,ioos:station:NOAA.NERRS:gndbhwq:1,2013-12-09T16:45:00Z,30.4178,-88.4054,1.19,24.7,1111122 
NERRS,ioos:station:NOAA.NERRS:gndbhwq:1,2013-12-09T17:45:00Z,30.4178,-88.4054,1.15,24.8,1111122 
NERRS,ioos:station:NOAA.NERRS:gndbhwq:1,2013-12-09T18:45:00Z,30.4178,-88.4054,1.22,24.8,1111122 
NERRS,ioos:station:NOAA.NERRS:gndbhwq:1,2013-12-09T19:45:00Z,30.4178,-88.4054,1.26,24.8,1111122 
NERRS,ioos:station:NOAA.NERRS:gndbhwq:1,2013-12-09T21:45:00Z,30.4178,-88.4054,1.27,24.5,1111122 
NERRS,ioos:station:NOAA.NERRS:gndbhwq:1,2013-12-09T23:45:00Z,30.4178,-88.4054,1.3,24.8,1111122 
NERRS,ioos:station:NOAA.NERRS:gndbhwq:1,2013-12-10T00:45:00Z,30.4178,-88.4054,1.37,24.7,1111122 
NERRS,ioos:station:NOAA.NERRS:gndbhwq:1,2013-12-10T01:45:00Z,30.4178,-88.4054,1.38,24.5,1111122 
NERRS,ioos:station:NOAA.NERRS:gndbhwq:1,2013-12-10T04:45:00Z,30.4178,-88.4054,1.31,24.5,1111122 
NERRS,ioos:station:NOAA.NERRS:gndbhwq:1,2013-12-10T05:45:00Z,30.4178,-88.4054,1.34,24.8,1111122 
NERRS,ioos:station:NOAA.NERRS:gndbhwq:1,2013-12-10T06:45:00Z,30.4178,-88.4054,1.33,24.8,1111122 
NERRS,ioos:station:NOAA.NERRS:gndbhwq:1,2013-12-10T08:45:00Z,30.4178,-88.4054,1.35,24.8,1111122 
NERRS,ioos:station:NOAA.NERRS:gndbhwq:1,2013-12-10T10:45:00Z,30.4178,-88.4054,1.17,24.7,1111122 
NERRS,ioos:station:NOAA.NERRS:gndbhwq:1,2013-12-10T11:45:00Z,30.4178,-88.4054,1.17,24.8,1111122 
NERRS,ioos:station:NOAA.NERRS:gndbhwq:1,2013-12-10T12:45:00Z,30.4178,-88.4054,1.14,24.6,1111122 
NERRS,ioos:station:NOAA.NERRS:gndbhwq:1,2013-12-10T14:45:00Z,30.4178,-88.4054,0.97,24.4,1111122 
NERRS,ioos:station:NOAA.NERRS:gndbhwq:1,2013-12-10T21:45:00Z,30.4178,-88.4054,1.21,24.5,1111122 
NERRS,ioos:station:NOAA.NERRS:gndbhwq:1,2013-12-11T01:45:00Z,30.4178,-88.4054,1.18,24.0,1111122 
NERRS,ioos:station:NOAA.NERRS:gndbhwq:1,2013-12-11T04:45:00Z,30.4178,-88.4054,1.16,23.6,1111122 
NERRS,ioos:station:NOAA.NERRS:gndbhwq:1,2013-12-11T05:45:00Z,30.4178,-88.4054,1.14,23.5,1111122 
NERRS,ioos:station:NOAA.NERRS:gndbhwq:1,2013-12-11T06:45:00Z,30.4178,-88.4054,1.19,23.7,1111122 
NERRS,ioos:station:NOAA.NERRS:gndbhwq:1,2013-12-11T09:45:00Z,30.4178,-88.4054,1.22,23.3,1111122 
NERRS,ioos:station:NOAA.NERRS:gndbhwq:1,2013-12-11T11:45:00Z,30.4178,-88.4054,1.19,23.3,1111122 
NERRS,ioos:station:NOAA.NERRS:gndbhwq:1,2013-12-11T12:45:00Z,30.4178,-88.4054,1.16,23.1,1111122 
NERRS,ioos:station:NOAA.NERRS:gndbhwq:1,2013-12-11T15:45:00Z,30.4178,-88.4054,1.29,23.3,1111122 
NERRS,ioos:station:NOAA.NERRS:gndbhwq:1,2013-12-11T21:45:00Z,30.4178,-88.4054,1.46,23.4,1111122 
NERRS,ioos:station:NOAA.NERRS:gndbhwq:1,2013-12-11T22:45:00Z,30.4178,-88.4054,1.41,23.4,1111122 
NERRS,ioos:station:NOAA.NERRS:gndbhwq:1,2013-12-12T00:45:00Z,30.4178,-88.4054,1.38,23.5,1111122 
NERRS,ioos:station:NOAA.NERRS:gndbhwq:1,2013-12-12T04:45:00Z,30.4178,-88.4054,1.28,23.6,1111122 
NERRS,ioos:station:NOAA.NERRS:gndbhwq:1,2013-12-12T08:45:00Z,30.4178,-88.4054,1.02,23.4,1111122 
NERRS,ioos:station:NOAA.NERRS:gndbhwq:1,2013-12-12T14:45:00Z,30.4178,-88.4054,1.0,23.7,1111122 
NERRS,ioos:station:NOAA.NERRS:gndbhwq:1,2013-12-12T15:45:00Z,30.4178,-88.4054,1.07,23.8,1111122 
NERRS,ioos:station:NOAA.NERRS:gndbhwq:1,2013-12-12T18:45:00Z,30.4178,-88.4054,1.18,24.0,1111122 
NERRS,ioos:station:NOAA.NERRS:gndbhwq:1,2013-12-12T20:45:00Z,30.4178,-88.4054,1.24,23.9,1111122 
NERRS,ioos:station:NOAA.NERRS:gndbhwq:1,2013-12-12T23:45:00Z,30.4178,-88.4054,1.27,22.7,1111122 
NERRS,ioos:station:NOAA.NERRS:gndbhwq:1,2013-12-13T01:45:00Z,30.4178,-88.4054,1.31,22.7,1111122 
NERRS,ioos:station:NOAA.NERRS:gndbhwq:1,2013-12-13T03:30:00Z,30.4178,-88.4054,1.29,22.4,1111122 
NERRS,ioos:station:NOAA.NERRS:gndbhwq:1,2013-12-13T05:45:00Z,30.4178,-88.4054,1.18,22.1,1111122 
NERRS,ioos:station:NOAA.NERRS:gndbhwq:1,2013-12-13T06:30:00Z,30.4178,-88.4054,1.11,22.5,1111122 
NERRS,ioos:station:NOAA.NERRS:gndbhwq:1,2013-12-13T07:45:00Z,30.4178,-88.4054,1.05,22.3,1111122 
NERRS,ioos:station:NOAA.NERRS:gndbhwq:1,2013-12-13T08:30:00Z,30.4178,-88.4054,1.03,22.6,1111122 
NERRS,ioos:station:NOAA.NERRS:gndbhwq:1,2013-12-13T09:45:00Z,30.4178,-88.4054,0.94,21.5,1111122 
NERRS,ioos:station:NOAA.NERRS:gndbhwq:1,2013-12-13T10:45:00Z,30.4178,-88.4054,0.99,22.0,1111122 
NERRS,ioos:station:NOAA.NERRS:gndbhwq:1,2013-12-13T11:45:00Z,30.4178,-88.4054,1.02,22.3,1111122 
NERRS,ioos:station:NOAA.NERRS:gndbhwq:1,2013-12-13T12:45:00Z,30.4178,-88.4054,1.03,23.4,1111122 
NERRS,ioos:station:NOAA.NERRS:gndbhwq:1,2013-12-13T13:45:00Z,30.4178,-88.4054,1.08,23.6,1111122 
NERRS,ioos:station:NOAA.NERRS:gndbhwq:1,2013-12-13T14:45:00Z,30.4178,-88.4054,1.13,23.5,1111122 
NERRS,ioos:station:NOAA.NERRS:gndbhwq:1,2013-12-13T16:45:00Z,30.4178,-88.4054,1.23,23.5,1111122 
NERRS,ioos:station:NOAA.NERRS:gndbhwq:1,2013-12-13T17:45:00Z,30.4178,-88.4054,1.28,23.6,1111122 
NERRS,ioos:station:NOAA.NERRS:gndbhwq:1,2013-12-13T18:45:00Z,30.4178,-88.4054,1.28,23.5,1111122 
NERRS,ioos:station:NOAA.NERRS:gndbhwq:1,2013-12-13T19:45:00Z,30.4178,-88.4054,1.3,23.4,1111122 
NERRS,ioos:station:NOAA.NERRS:gndbhwq:1,2013-12-13T20:45:00Z,30.4178,-88.4054,1.35,23.5,1111122 
NERRS,ioos:station:NOAA.NERRS:gndbhwq:1,2013-12-13T21:45:00Z,30.4178,-88.4054,1.39,23.5,1111122 
NERRS,ioos:station:NOAA.NERRS:gndbhwq:1,2013-12-13T22:45:00Z,30.4178,-88.4054,1.39,22.5,1111122 
NERRS,ioos:station:NOAA.NERRS:gndbhwq:1,2013-12-13T23:45:00Z,30.4178,-88.4054,1.44,22.6,1111122 
NERRS,ioos:station:NOAA.NERRS:gndbhwq:1,2013-12-14T00:45:00Z,30.4178,-88.4054,1.47,22.5,1111122 
NERRS,ioos:station:NOAA.NERRS:gndbhwq:1,2013-12-14T01:45:00Z,30.4178,-88.4054,1.45,22.7,1111122 
NERRS,ioos:station:NOAA.NERRS:gndbhwq:1,2013-12-14T02:45:00Z,30.4178,-88.4054,1.4,22.0,1111122 
NERRS,ioos:station:NOAA.NERRS:gndbhwq:1,2013-12-14T03:45:00Z,30.4178,-88.4054,1.41,22.6,1111122 
NERRS,ioos:station:NOAA.NERRS:gndbhwq:1,2013-12-14T04:30:00Z,30.4178,-88.4054,1.42,22.5,1111122 
NERRS,ioos:station:NOAA.NERRS:gndbhwq:1,2013-12-14T05:45:00Z,30.4178,-88.4054,1.24,21.5,1111122 
NERRS,ioos:station:NOAA.NERRS:gndbhwq:1,2013-12-14T06:45:00Z,30.4178,-88.4054,1.2,22.6,1111122 
NERRS,ioos:station:NOAA.NERRS:gndbhwq:1,2013-12-14T07:45:00Z,30.4178,-88.4054,1.09,22.2,1111122 
NERRS,ioos:station:NOAA.NERRS:gndbhwq:1,2013-12-14T08:45:00Z,30.4178,-88.4054,1.02,22.5,1111122 
NERRS,ioos:station:NOAA.NERRS:gndbhwq:1,2013-12-14T09:45:00Z,30.4178,-88.4054,0.99,21.7,1111122 
NERRS,ioos:station:NOAA.NERRS:gndbhwq:1,2013-12-14T10:30:00Z,30.4178,-88.4054,0.99,21.8,1111122 
NERRS,ioos:station:NOAA.NERRS:gndbhwq:1,2013-12-14T11:30:00Z,30.4178,-88.4054,1.05,21.9,1111122 
NERRS,ioos:station:NOAA.NERRS:gndbhwq:1,2013-12-14T12:45:00Z,30.4178,-88.4054,1.15,22.5,1111122 
NERRS,ioos:station:NOAA.NERRS:gndbhwq:1,2013-12-14T13:45:00Z,30.4178,-88.4054,1.05,23.2,1111122 
NERRS,ioos:station:NOAA.NERRS:gndbhwq:1,2013-12-14T14:45:00Z,30.4178,-88.4054,1.19,23.2,1111122 
NERRS,ioos:station:NOAA.NERRS:gndbhwq:1,2013-12-14T15:45:00Z,30.4178,-88.4054,1.2,22.9,1111122 
NERRS,ioos:station:NOAA.NERRS:gndbhwq:1,2013-12-14T16:45:00Z,30.4178,-88.4054,1.2,23.0,1111122 
NERRS,ioos:station:NOAA.NERRS:gndbhwq:1,2013-12-14T17:45:00Z,30.4178,-88.4054,1.28,22.9,1111122 
NERRS,ioos:station:NOAA.NERRS:gndbhwq:1,2013-12-14T18:45:00Z,30.4178,-88.4054,1.25,22.9,1111122 
NERRS,ioos:station:NOAA.NERRS:gndbhwq:1,2013-12-14T19:30:00Z,30.4178,-88.4054,1.3,22.9,1111122 
NERRS,ioos:station:NOAA.NERRS:gndbhwq:1,2013-12-14T20:45:00Z,30.4178,-88.4054,1.37,23.0,1111122 
NERRS,ioos:station:NOAA.NERRS:gndbhwq:1,2013-12-14T21:45:00Z,30.4178,-88.4054,1.39,23.3,1111122 
NERRS,ioos:station:NOAA.NERRS:gndbhwq:1,2013-12-14T22:45:00Z,30.4178,-88.4054,1.46,22.0,1111122 
NERRS,ioos:station:NOAA.NERRS:gndbhwq:1,2013-12-14T23:45:00Z,30.4178,-88.4054,1.52,22.3,1111122 
NERRS,ioos:station:NOAA.NERRS:gndbhwq:1,2013-12-15T00:45:00Z,30.4178,-88.4054,1.58,22.3,1111122 
NERRS,ioos:station:NOAA.NERRS:gndbhwq:1,2013-12-15T01:45:00Z,30.4178,-88.4054,1.61,22.2,1111122 
NERRS,ioos:station:NOAA.NERRS:gndbhwq:1,2013-12-15T02:45:00Z,30.4178,-88.4054,1.54,21.6,1111122 
NERRS,ioos:station:NOAA.NERRS:gndbhwq:1,2013-12-15T03:45:00Z,30.4178,-88.4054,1.51,22.2,1111122 
NERRS,ioos:station:NOAA.NERRS:gndbhwq:1,2013-12-15T04:45:00Z,30.4178,-88.4054,1.43,22.7,1111122 
NERRS,ioos:station:NOAA.NERRS:gndbhwq:1,2013-12-15T05:45:00Z,30.4178,-88.4054,1.33,21.6,1111122 
NERRS,ioos:station:NOAA.NERRS:gndbhwq:1,2013-12-15T06:45:00Z,30.4178,-88.4054,1.23,21.6,1111122 
NERRS,ioos:station:NOAA.NERRS:gndbhwq:1,2013-12-15T07:30:00Z,30.4178,-88.4054,1.08,21.7,1111122 
NERRS,ioos:station:NOAA.NERRS:gndbhwq:1,2013-12-15T08:45:00Z,30.4178,-88.4054,0.93,21.9,1111122 
NERRS,ioos:station:NOAA.NERRS:gndbhwq:1,2013-12-15T09:45:00Z,30.4178,-88.4054,0.79,21.5,1111122 
NERRS,ioos:station:NOAA.NERRS:gndbhwq:1,2013-12-15T10:45:00Z,30.4178,-88.4054,0.78,22.2,1111122 
NERRS,ioos:station:NOAA.NERRS:gndbhwq:1,2013-12-15T11:45:00Z,30.4178,-88.4054,0.71,21.8,1111122 
NERRS,ioos:station:NOAA.NERRS:gndbhwq:1,2013-12-15T12:45:00Z,30.4178,-88.4054,0.71,23.4,1111122 
NERRS,ioos:station:NOAA.NERRS:gndbhwq:1,2013-12-15T13:45:00Z,30.4178,-88.4054,0.79,23.5,1111122 
NERRS,ioos:station:NOAA.NERRS:gndbhwq:1,2013-12-15T14:45:00Z,30.4178,-88.4054,0.81,23.6,1111122 
NERRS,ioos:station:NOAA.NERRS:gndbhwq:1,2013-12-15T15:45:00Z,30.4178,-88.4054,0.84,23.7,1111122 
NERRS,ioos:station:NOAA.NERRS:gndbhwq:1,2013-12-15T16:45:00Z,30.4178,-88.4054,0.99,23.1,1111122 
NERRS,ioos:station:NOAA.NERRS:gndbhwq:1,2013-12-15T17:45:00Z,30.4178,-88.4054,0.97,22.0,1111122 
NERRS,ioos:station:NOAA.NERRS:gndbhwq:1,2013-12-15T18:45:00Z,30.4178,-88.4054,1.02,23.1,1111122 
NERRS,ioos:station:NOAA.NERRS:gndbhwq:1,2013-12-15T19:45:00Z,30.4178,-88.4054,1.11,23.0,1111122 
NERRS,ioos:station:NOAA.NERRS:gndbhwq:1,2013-12-15T20:30:00Z,30.4178,-88.4054,1.16,22.7,1111122 
NERRS,ioos:station:NOAA.NERRS:gndbhwq:1,2013-12-15T21:45:00Z,30.4178,-88.4054,1.25,22.7,1111122 
NERRS,ioos:station:NOAA.NERRS:gndbhwq:1,2013-12-15T22:30:00Z,30.4178,-88.4054,1.3,22.4,1111122 
NERRS,ioos:station:NOAA.NERRS:gndbhwq:1,2013-12-15T23:45:00Z,30.4178,-88.4054,1.39,21.6,1111122 
NERRS,ioos:station:NOAA.NERRS:gndbhwq:1,2013-12-16T00:45:00Z,30.4178,-88.4054,1.35,21.4,1111122 
NERRS,ioos:station:NOAA.NERRS:gndbhwq:1,2013-12-16T01:30:00Z,30.4178,-88.4054,1.4,21.9,1111122 
NERRS,ioos:station:NOAA.NERRS:gndbhwq:1,2013-12-16T02:45:00Z,30.4178,-88.4054,1.39,21.4,1111122 
NERRS,ioos:station:NOAA.NERRS:gndbhwq:1,2013-12-16T03:45:00Z,30.4178,-88.4054,1.38,22.2,1111122 
NERRS,ioos:station:NOAA.NERRS:gndbhwq:1,2013-12-16T04:45:00Z,30.4178,-88.4054,1.36,21.4,1111122 
NERRS,ioos:station:NOAA.NERRS:gndbhwq:1,2013-12-16T05:45:00Z,30.4178,-88.4054,1.31,21.6,1111122 